Regional Weather Roundup
Issued by NWS

Home | Current Version | Previous Version | Text Only | Print | Product List | Glossary Off
Versions: 1 2 3 4 5 6 7 8 9 10 11 12 13 14 15 16 17 18 19 20 21 22 23 24 25 26 27 28 29 30 31 32 33 34 35 36 37 38 39 40 41 42 43 44 45 46 47 48 49 50

000
ASUS43 KMPX 272110
RWRMN
WEATHER ROUNDUP FOR MINNESOTA
NATIONAL WEATHER SERVICE TWIN CITIES/CHANHASSEN MN
400 PM CDT THU AUG 27 2015


NOTE: "FAIR" INDICATES FEW OR NO CLOUDS BELOW 12,000 FEET WITH NO
SIGNIFICANT WEATHER AND/OR OBSTRUCTIONS TO VISIBILITY. N/A MEANS
CURRENT SKY AND/OR WEATHER CONDITIONS ARE NOT AVAILABLE.

MNZ060>063-068>070-272200-
   Twin Cities Metro

CITY           SKY/WX    TMP DP  RH WIND       PRES   REMARKS
TWIN CITIES    PTSUNNY   75  60  59 S9        30.04R
ST PAUL        FAIR      74  61  63 S13       30.04R
CRYSTAL        PTSUNNY   77  61  57 S13       30.01S
BLAINE         CLOUDY    75  61  60 S12       30.04R
LAKEVILLE      FAIR      72  63  73 S5        30.04R
EDEN PRAIRIE   FAIR      76  62  62 S12       30.02S
SOUTH ST PAUL  FAIR      76  60  57 S13       30.03S
LAKE ELMO      FAIR      72  63  73 S8        30.05R
$$
MNZ001>005-007-008-013>017-022>024-027-028-272200-
   Northwest Minnesota

CITY           SKY/WX    TMP DP  RH WIND       PRES   REMARKS
BEMIDJI        FAIR      75  62  64 S8        29.97S
HALLOCK        FAIR      79  61  53 S10       29.92S
ROSEAU         FAIR      79  63  57 S8        29.94S
WARROAD        FAIR      72  63  73 NE5       29.95F
THIEF RVR FALL FAIR     N/A N/A N/A SE7       29.93F
CROOKSTON      FAIR      79  64  61 SW8       29.93F
FOSSTON        FAIR      79  63  57 S7        29.96F
DETROIT LAKES  FAIR      73  63  68 CALM      29.97F
MOORHEAD       FAIR      75  64  69 SW3       29.94F
PARK RAPIDS    FAIR      77  63  61 SW8       29.97F
MAHNOMEN       FAIR      76  65  68 SW8       29.95F
$$
MNZ006-009>011-018-025>026-272200-
   North Central Minnesota

CITY           SKY/WX    TMP DP  RH WIND       PRES   REMARKS
BAUDETTE       FAIR      76  57  51 S7        29.95F
FLAG ISLAND    FAIR      72  57  60 S3        29.94F
INTL FALLS     FAIR      75  57  53 VRB6      29.97S
WASKISH        FAIR      75  63  64 W5        29.96F
BIG FORK       FAIR      73  61  64 S7        29.98F
LONGVILLE      FAIR      75  63  64 S10       29.98S
GRAND RAPIDS     N/A     73  57  56 S14       29.99F
CRANE LAKE     FAIR      73  54  49 S6        30.00F
ORR            PTSUNNY   75  52  43 SW6       29.97F
COOK           FAIR      75  54  46 S8        30.00F
WALKER         MOCLDY    74  63  66 S7        29.96F
$$
MNZ012-019>021-037-272200-
   Northeast Minnesota

CITY           SKY/WX    TMP DP  RH WIND       PRES   REMARKS
DULUTH         PTSUNNY   71  57  61 S9        30.02F
ELY            PTSUNNY   73  52  46 SW9       30.01S
HIBBING        PTSUNNY   74  56  53 VRB6      30.00F
EVELETH        FAIR      72  55  56 S10       30.02F
DULUTH HARBOR  FAIR      57  54  88 N3        30.03F
TWO HARBORS    PTSUNNY   73  61  64 SE6       30.01F
SILVER BAY     FAIR      72  55  56 S3        30.01F
GRAND MARAIS     N/A     61  53  75 CALM      30.04F
G MARAIS ARPRT FAIR      66  48  52 S8        30.07S
$$
MNZ029>031-032-039>041-046>048-054>057-064-272200-
   West Central Minnesota

CITY           SKY/WX    TMP DP  RH WIND       PRES   REMARKS
FERGUS FALLS   FAIR      75  64  69 SE7       29.94F
WHEATON        FAIR      73  64  73 S8        29.96S
MORRIS         FAIR      73  64  73 S9        29.96S
ALEXANDRIA     FAIR      73  64  73 S8        29.99F
ELBOW LAKE     FAIR      73  65  74 SE10      29.96S
WADENA         FAIR      73  63  68 S7        29.97S
GLENWOOD       FAIR      75  64  69 S10       29.99F
APPLETON       FAIR      75  64  69 S10       29.96F
BENSON         FAIR      75  64  69 SW8       29.96F
ORTONVILLE     FAIR      75  64  69 S7        29.96S
MADISON        FAIR      73  66  78 S5        29.96F
WILLMAR        FAIR      72  64  78 S6        30.01S
$$
MNZ033>034-036-042>043-049>051-058-059-272200-
   Central Minnesota

CITY           SKY/WX    TMP DP  RH WIND       PRES   REMARKS
ST CLOUD       FAIR      74  62  66 S12       30.00S
SAUK CENTRE    FAIR      74  64  70 S10       29.99F
PAYNESVILLE    FAIR      74  62  64 SE12      30.00F
AITKIN         PTSUNNY   75  63  64 S12       29.99S
PINE RIVER     FAIR      75  64  69 S9        30.01S
BRAINERD       PTSUNNY   76  62  62 S10       29.99S
STAPLES        FAIR      73  63  68 S7        29.98S
LONG PRAIRIE   FAIR      72  61  68 SE15      30.00S
LITTLE FALLS   PTSUNNY   73  59  60 S10       30.00R
LITCHFIELD     FAIR      73  64  73 S7        30.02R
BUFFALO        FAIR      75  60  60 SE8       30.02F
MAPLE LAKE     FAIR      76  65  68 S10G17    30.02S
$$
MNZ037-044-045-052-053-272200-
   East Central Minnesota

CITY           SKY/WX    TMP DP  RH WIND       PRES   REMARKS
PRINCETON      PTSUNNY   75  61  60 S8        30.02R
MORA           FAIR      73  59  60 S7        30.03S
CAMBRIDGE      FAIR      77  61  57 S8        30.01R
RUSH CITY      PTSUNNY   73  60  63 S8        30.02S
MOOSE LAKE     PTSUNNY   73  59  60 CALM      29.99F
HINCKLEY       CLOUDY    73  61  64 S10       30.02R
CLOQUET        PTSUNNY   72  54  53 S7        30.02F
MCGREGOR       FAIR      73  61  64 SE9       30.00F
$$
MNZ071>073-080-081-089-090-097-098-272200-
   Southwest Minnesota

CITY           SKY/WX    TMP DP  RH WIND       PRES   REMARKS
MONTEVIDEO     FAIR      75  66  73 SW6       29.99F
GRANITE FALLS  FAIR      70  65  82 CALM      30.00F
CANBY          FAIR      74  66  77 CALM      29.99S
MARSHALL       CLOUDY    72  61  68 S6        30.00S THUNDER
REDWOOD FALLS  PTSUNNY   67  63  87 S13G25    29.96F
OLIVIA         TSTM      64  61  88 SW9       30.01R
PIPESTONE      FAIR      75  64  69 SE8       30.01F
WINDOM         FAIR      70  63  78 CALM      30.04F
WORTHINGTON    FAIR      73  63  68 E8        30.03F
JACKSON        CLOUDY    68  63  83 E9        30.06F
TRACY          FAIR      73  65  77 S10       29.98F
SLAYTON        FAIR      73  66  80 CALM      30.02F
$$
MNZ065>067-074>077-082>085-091>093-272200-
   South Central Minnesota

CITY           SKY/WX    TMP DP  RH WIND       PRES   REMARKS
MANKATO        CLOUDY    66  59  77 S10       30.06S
NEW ULM        DRIZZLE   66  64  94 S15       30.00F
ST JAMES       LGT RAIN  66  64  94 E8        30.05F
FAIRMONT       FAIR      66  57  72 CALM      30.08R
GLENCOE        PTSUNNY   72  62  71 S10G16    30.02F
FARIBAULT      FAIR      72  61  68 S6        30.06S
OWATONNA       FAIR      72  57  60 S7        30.07R
WASECA         FAIR      70  59  68 SW7       30.10R
ALBERT LEA     FAIR      72  57  60 S7        30.08R
$$
MNZ078>079-086>088-094>096-272200-
   Southeast Minnesota

CITY           SKY/WX    TMP DP  RH WIND       PRES   REMARKS
ROCHESTER      FAIR      71  60  68 S12       30.07S
RED WING       FAIR      77  59  53 SW8       30.04R
STANTON        FAIR      74  60  61 S6        30.03S
DODGE CENTER   FAIR      70  57  64 S9        30.08R
WINONA         FAIR      73  57  56 SE6       30.05F
AUSTIN         FAIR      72  61  68 S7        30.08R
PRESTON        FAIR      72  55  56 S10       30.07F
$$
ABBREVIATIONS USED IN REMARKS
   TC - TEMPERATURES IN CELSIUS
  WCI - WIND CHILL INDEX
   HX - HEAT INDEX
  VSB - VISIBILITY
$$


USA.gov is the U.S. government's official web portal to all federal, state and local government web resources and services.